F4DYW-13 Weather Reports


time (UTC)temp
F
wind
direction
speed
knots
gust
knots
rain 1hr
in
rain 24hr
in
rain mn
in
humidity
%
barometer
mb
20260507193625 65 0 0.0 0.0 0.00 0.00 0.00 65 1015.0
20260507191907 65 0 0.0 0.0 0.00 0.00 0.00 65 1014.8
20260507190151 65 0 0.0 0.0 0.00 0.00 0.00 64 1014.7
20260507184435 65 0 0.0 0.0 0.00 0.00 0.00 63 1014.7
20260507182720 65 0 0.0 0.0 0.00 0.00 0.00 63 1014.4
20260507171817 66 0 0.0 0.0 0.00 0.00 0.00 60 1014.0
20260507162630 66 0 0.0 0.0 0.00 0.00 0.00 60 1014.0
20260507155159 66 0 0.0 0.0 0.00 0.00 0.00 59 1013.7
20260507151728 67 0 0.0 0.0 0.00 0.00 0.00 56 1013.9
20260507150012 71 0 0.0 0.0 0.00 0.00 0.00 50 1014.0
20260507144257 68 0 0.0 0.0 0.00 0.00 0.00 55 1014.2
20260507142541 69 0 0.0 0.0 0.00 0.00 0.00 54 1014.4
20260507140826 65 0 0.0 0.0 0.00 0.00 0.00 62 1014.6
20260507135109 65 0 0.0 0.0 0.00 0.00 0.00 62 1014.8
20260507131643 65 0 0.0 0.0 0.00 0.00 0.00 62 1015.0
20260507124211 65 0 0.0 0.0 0.00 0.00 0.00 61 1015.0
20260507122456 65 0 0.0 0.0 0.00 0.00 0.00 62 1015.1
20260507113306 65 0 0.0 0.0 0.00 0.00 0.00 62 1015.5
20260507111548 65 0 0.0 0.0 0.00 0.00 0.00 62 1015.7
20260507104117 65 0 0.0 0.0 0.00 0.00 0.00 63 1015.9
20260507100646 64 0 0.0 0.0 0.00 0.00 0.00 64 1016.1
20260507094931 64 0 0.0 0.0 0.00 0.00 0.00 64 1016.3
20260507085745 63 0 0.0 0.0 0.00 0.00 0.00 65 1016.3
20260507080555 63 0 0.0 0.0 0.00 0.00 0.00 65 1016.4
20260507074842 63 0 0.0 0.0 0.00 0.00 0.00 65 1016.4
20260507073125 63 0 0.0 0.0 0.00 0.00 0.00 66 1016.5
20260507071409 63 0 0.0 0.0 0.00 0.00 0.00 66 1016.4
20260507065653 63 0 0.0 0.0 0.00 0.00 0.00 66 1016.4
20260507063937 63 0 0.0 0.0 0.00 0.00 0.00 65 1016.4
20260507062221 63 0 0.0 0.0 0.00 0.00 0.00 65 1016.3
20260507054750 63 0 0.0 0.0 0.00 0.00 0.00 65 1016.2
20260507040422 63 0 0.0 0.0 0.00 0.00 0.00 66 1015.6
20260507034701 63 0 0.0 0.0 0.00 0.00 0.00 66 1015.5
20260507031230 63 0 0.0 0.0 0.00 0.00 0.00 67 1015.4
20260507025514 63 0 0.0 0.0 0.00 0.00 0.00 67 1015.5
20260507020328 63 0 0.0 0.0 0.00 0.00 0.00 67 1015.6
20260507012900 63 0 0.0 0.0 0.00 0.00 0.00 67 1015.3
20260507011141 63 0 0.0 0.0 0.00 0.00 0.00 67 1015.4
20260507005428 63 0 0.0 0.0 0.00 0.00 0.00 67 1015.4
20260507003709 63 0 0.0 0.0 0.00 0.00 0.00 67 1015.5
20260507001953 63 0 0.0 0.0 0.00 0.00 0.00 67 1015.5
20260507000238 64 0 0.0 0.0 0.00 0.00 0.00 67 1015.4
20260506234522 63 0 0.0 0.0 0.00 0.00 0.00 67 1015.5
20260506232807 63 0 0.0 0.0 0.00 0.00 0.00 67 1015.5
20260506214432 64 0 0.0 0.0 0.00 0.00 0.00 66 1015.2
20260506212717 64 0 0.0 0.0 0.00 0.00 0.00 66 1015.0
20260506211002 64 0 0.0 0.0 0.00 0.00 0.00 66 1014.8
20260506205246 64 0 0.0 0.0 0.00 0.00 0.00 66 1014.7
20260506203535 64 0 0.0 0.0 0.00 0.00 0.00 66 1014.6
20260506201814 64 0 0.0 0.0 0.00 0.00 0.00 66 1014.4